Date String (YYYY-MM-DD hh:mm:ss) UTC,Instrument flags,Ambient pressure (hPa),Sample flow (lpm),Bypass flow (lpm),Sample temperature (°C),Ambient temperature (°C),ASC tube jacket temperature (°C),LED temperature (°C),Box temperature (°C),Sample RH (%),Span deviation,Mass concentration (μg/m³),Mass concentration (μg/m³),Mass concentration (μg/m³)
DateTimeUTC,F1_M11,P_M11,Q1_M11,Q2_M11,T1_M11,T2_M11,T3_M11,T4_M11,T5_M11,U1_M11,ZSPAN_M11,X0_M11,X2_M11,X1_M11
2021-10-01 02:00:00,,0833.7,5.01,0.00,28.6,27.9,00.0,37.7,30.4,22.9,0000.4,0005.76,0003.84,0003.66
2021-10-01 02:01:00,,0833.7,4.98,0.00,28.6,27.9,00.0,37.7,30.5,23.7,0000.2,0005.72,0003.84,0003.66
2021-10-01 02:02:00,,0833.8,4.99,0.00,28.7,27.9,00.0,37.7,30.5,23.8,0000.0,0005.53,0003.87,0003.69
2021-10-01 02:03:00,,0833.8,5.00,0.00,28.7,27.9,00.0,37.7,30.5,23.3,0000.0,0005.39,0003.91,0003.72
2021-10-01 02:04:00,,0833.8,5.00,0.00,28.7,27.9,00.0,37.7,30.5,23.0,0000.0,0005.39,0003.92,0003.75
2021-10-01 02:05:00,,0833.8,4.99,0.00,28.7,27.9,00.0,37.7,30.5,23.0,0000.0,0005.35,0003.92,0003.75
2021-10-01 02:06:00,,0833.8,5.00,0.00,28.7,27.9,00.0,37.7,30.5,23.1,-000.0,0005.42,0003.94,0003.77
2021-10-01 02:07:00,,0833.8,5.00,0.00,28.6,27.9,00.0,37.7,30.5,23.0,0000.0,0005.46,0003.96,0003.78
2021-10-01 02:08:00,,0833.8,5.00,0.00,28.6,27.9,00.0,37.7,30.5,22.8,0000.0,0005.47,0003.96,0003.78
2021-10-01 02:09:00,,0833.8,5.00,0.00,28.6,27.9,00.0,37.7,30.4,23.1,0000.0,0005.45,0003.98,0003.79
2021-10-01 02:10:00,,0833.9,4.99,0.00,28.6,27.9,00.0,37.7,30.4,23.0,0000.0,0005.56,0004.01,0003.81
2021-10-01 02:11:00,,0833.8,5.01,0.00,28.6,27.9,00.0,37.7,30.5,22.4,0000.0,0005.75,0004.05,0003.84
2021-10-01 02:12:00,,0833.8,5.01,0.00,28.6,27.9,00.0,37.7,30.5,21.9,0000.0,0005.77,0004.07,0003.85
2021-10-01 02:13:00,,0833.8,4.98,0.00,28.7,27.9,00.0,37.7,30.5,21.9,0000.0,0006.15,0004.04,0003.83
2021-10-01 02:14:00,,0833.8,5.00,0.00,28.6,27.9,00.0,37.7,30.5,22.2,0000.0,0006.99,0004.02,0003.81
2021-10-01 02:15:00,,0833.8,5.00,0.00,28.6,27.9,00.0,37.7,30.5,22.1,0000.0,0006.95,0004.01,0003.80
2021-10-01 02:16:00,,0833.8,5.00,0.00,28.6,27.9,00.0,37.7,30.5,22.4,0000.0,0006.94,0004.01,0003.80
2021-10-01 02:17:00,,0833.8,5.01,0.00,28.6,27.9,00.0,37.7,30.5,22.9,0000.0,0006.86,0003.99,0003.79
2021-10-01 02:18:00,,0833.8,4.98,0.00,28.6,27.9,00.0,37.7,30.4,23.8,0000.0,0006.94,0004.00,0003.80
2021-10-01 02:19:00,,0833.8,5.01,0.00,28.7,27.9,00.0,37.7,30.5,24.4,0000.0,0007.11,0004.05,0003.84
2021-10-01 02:20:00,,0833.8,4.99,0.00,28.7,27.9,00.0,37.7,30.5,24.7,0000.0,0007.61,0004.10,0003.89
2021-10-01 02:21:00,,0833.8,5.01,0.00,28.7,27.9,00.0,37.7,30.5,24.6,0000.0,0008.03,0004.12,0003.92
2021-10-01 02:22:00,,0833.8,5.00,0.00,28.7,27.9,00.0,37.7,30.5,23.9,0000.0,0008.01,0004.14,0003.94
2021-10-01 02:23:00,,0833.8,5.00,0.00,28.7,27.9,00.0,37.7,30.5,23.6,0000.0,0007.98,0004.13,0003.94
2021-10-01 02:24:00,,0833.8,4.99,0.00,28.7,28.0,00.0,37.7,30.5,23.0,0000.0,0007.68,0004.15,0003.95
2021-10-01 02:25:00,,0833.8,5.02,0.00,28.7,28.0,00.0,37.8,30.5,22.6,0000.0,0007.22,0004.16,0003.96
2021-10-01 02:26:00,,0833.8,5.00,0.00,28.7,28.0,00.0,37.8,30.5,22.6,0000.0,0007.27,0004.18,0003.97
2021-10-01 02:27:00,,0833.7,4.99,0.00,28.7,28.0,00.0,37.8,30.5,22.7,-000.7,0007.34,0004.19,0003.97
2021-10-01 02:28:00,,0833.7,5.01,0.00,28.7,28.0,00.0,37.8,30.5,22.6,-001.4,0007.40,0004.22,0003.99
2021-10-01 02:29:00,,0833.7,5.01,0.00,28.7,28.0,00.0,37.8,30.6,22.5,0000.0,0007.47,0004.22,0003.99
2021-10-01 02:30:00,,0833.7,4.99,0.00,28.8,28.0,00.0,37.8,30.6,22.5,-000.3,0007.74,0004.19,0003.97
2021-10-01 02:31:00,,0833.8,4.99,0.00,28.8,28.0,00.0,37.8,30.6,22.2,-000.1,0007.13,0004.14,0003.92
2021-10-01 02:32:00,,0833.8,5.01,0.00,28.8,28.1,00.0,37.8,30.6,22.1,-000.0,0006.51,0004.12,0003.89
2021-10-01 02:33:00,,0833.9,5.00,0.00,28.8,28.1,00.0,37.8,30.6,22.1,-000.3,0006.50,0004.10,0003.88
2021-10-01 02:34:00,,0833.9,4.99,0.00,28.8,28.1,00.0,37.8,30.7,22.0,-000.0,0006.56,0004.11,0003.88
2021-10-01 02:35:00,,0833.8,5.01,0.00,28.8,28.1,00.0,37.8,30.7,21.9,0000.0,0006.55,0004.09,0003.86
2021-10-01 02:36:00,,0833.8,5.01,0.00,28.8,28.1,00.0,37.9,30.7,22.1,0000.0,0006.68,0004.10,0003.85
2021-10-01 02:37:00,,0833.8,4.99,0.00,28.8,28.1,00.0,37.9,30.7,21.5,0000.0,0006.71,0004.10,0003.84
2021-10-01 02:38:00,,0833.8,5.01,0.00,28.9,28.1,00.0,37.9,30.7,21.2,0000.0,0006.85,0004.10,0003.84
2021-10-01 02:39:00,,0833.8,5.01,0.00,28.9,28.1,00.0,37.9,30.6,21.2,0000.0,0007.34,0004.11,0003.84
2021-10-01 02:40:00,,0833.8,4.99,0.00,28.9,28.1,00.0,37.9,30.7,21.3,0000.0,0007.22,0004.10,0003.84
2021-10-01 02:41:00,,0833.8,5.00,0.00,28.9,28.1,00.0,37.9,30.7,21.3,0000.0,0006.53,0004.09,0003.83
2021-10-01 02:42:00,,0833.8,5.00,0.00,28.9,28.1,00.0,37.9,30.7,21.5,0000.0,0006.79,0004.11,0003.83
2021-10-01 02:43:00,,0833.9,5.00,0.00,28.9,28.2,00.0,37.9,30.7,21.7,0000.0,0007.64,0004.10,0003.82
2021-10-01 02:44:00,,0833.9,5.01,0.00,28.9,28.2,00.0,37.9,30.7,21.9,0000.0,0007.66,0004.10,0003.83
2021-10-01 02:45:00,,0833.9,5.00,0.00,28.9,28.2,00.0,38.0,30.7,21.8,0000.0,0007.64,0004.09,0003.83
2021-10-01 02:46:00,,0833.9,4.98,0.00,28.9,28.2,00.0,38.0,30.7,21.8,0000.0,0007.62,0004.10,0003.85
2021-10-01 02:47:00,,0833.9,5.00,0.00,28.9,28.2,00.0,38.0,30.7,21.7,0000.0,0007.57,0004.08,0003.85
2021-10-01 02:48:00,,0833.9,5.00,0.00,28.9,28.2,00.0,38.0,30.8,21.5,0000.1,0007.61,0004.08,0003.85
2021-10-01 02:49:00,,0833.9,4.99,0.00,28.9,28.2,00.0,38.0,30.8,21.4,0001.3,0007.55,0004.09,0003.85
2021-10-01 02:50:00,,0833.9,5.01,0.00,28.9,28.2,00.0,38.0,30.8,21.5,0001.1,0007.33,0004.11,0003.86
2021-10-01 02:51:00,,0833.9,5.00,0.00,29.0,28.2,00.0,38.0,30.7,21.5,0001.0,0007.34,0004.12,0003.87
2021-10-01 02:52:00,,0833.9,5.00,0.00,29.0,28.2,00.0,38.0,30.7,21.4,0000.7,0007.38,0004.13,0003.87
2021-10-01 02:53:00,,0833.9,5.01,0.00,29.0,28.2,00.0,38.0,30.7,21.5,0000.6,0007.16,0004.14,0003.87
2021-10-01 02:54:00,,0833.9,5.00,0.00,29.0,28.2,00.0,38.0,30.8,21.7,0001.1,0006.17,0004.13,0003.87
2021-10-01 02:55:00,,0833.9,5.00,0.00,29.0,28.2,00.0,38.0,30.8,21.8,0001.6,0006.00,0004.11,0003.87
2021-10-01 02:56:00,,0833.9,5.00,0.00,29.0,28.2,00.0,38.0,30.8,21.9,0001.3,0005.96,0004.10,0003.87
2021-10-01 02:57:00,,0833.9,4.99,0.00,29.0,28.2,00.0,38.0,30.8,22.0,0000.5,0005.97,0004.10,0003.86
2021-10-01 02:58:00,,0833.9,5.01,0.00,29.0,28.2,00.0,38.0,30.8,21.9,0001.2,0006.11,0004.11,0003.87
2021-10-01 02:59:00,,0833.9,5.01,0.00,29.0,28.2,00.0,38.0,30.8,21.7,0000.0,0006.02,0004.10,0003.87
